Home   Weather   Lowell   Past weeks

Flag for USA Past Weather in Lowell, Massachusetts, USA — Yesterday and Last 2 Weeks

Now
63 °F

Sunny.


Feels Like: 63 °F
Forecast: 39 / 67 °F
Wind: 8 mph from Southwest

Location: Hanscom Field

Current Time: Apr 23, 2017 at 3:48:55 pm

Latest Report: Apr 23, 2017 at 2:56 pm


Visibility: 10 mi

Pressure: 30.07 "Hg

Humidity: 35%

Dew Point: 35 °F

Location of LowellLocation

Past Weather in Lowell — Graph

°F

Lowell Temperature Yesterday

Maximum temperature yesterday: 45 °F (at 3:56 pm)
Minimum temperature yesterday: 39 °F (at 11:18 pm)
Average temperature yesterday: 43 °F

High & Low Weather Summary for the Past Weeks

 TemperatureHumidityPressure
High87 °F (Apr 11, 2:56 pm)96% (Apr 23, 12:04 am)30.62 "Hg (Apr 23, 12:04 am)
Low32 °F (Apr 14, 5:56 am)13% (Apr 9, 1:56 pm)29.65 "Hg (Apr 16, 6:56 pm)
Average53 °F58%30.14 "Hg
* Reported Apr 8 1:56 pm — Apr 23 1:56 pm, Lowell, Weather by CustomWeather, © 2017

Note: Actual official high and low records may vary slightly from our data, if they occured in-between our weather recording intervals... More about our weather records

Advertising

Lowell Weather History for the Previous 24 Hours

Scroll right to see more
 ConditionsComfort  
Time TempWeatherWind HumidityBarometerVisibility
1:56 pm
Sun, Apr 23
62 °FSunny.9 mph38%30.09 "Hg10 mi
12:56 pm59 °FSunny.5 mph41%30.09 "Hg10 mi
11:56 am57 °FSunny.5 mph47%30.11 "Hg10 mi
10:56 am54 °FSunny.5 mph51%30.12 "Hg10 mi
9:56 am53 °FSunny.7 mph52%30.12 "Hg10 mi
8:56 am50 °FSunny.8 mph59%30.12 "Hg10 mi
7:56 am46 °FSunny.8 mph71%30.11 "Hg10 mi
6:56 am36 °FSunny.No wind89%30.08 "Hg9 mi
5:56 am34 °FSunny.3 mph88%30.06 "Hg10 mi
4:56 am37 °FClear.3 mph86%30.03 "Hg10 mi
3:56 am38 °FClear.5 mph86%30.03 "Hg10 mi
2:56 am34 °FPassing clouds.5 mph92%30.03 "Hg7 mi
2:30 am35 °FFog.3 mph92%29.99 "Hg1 mi
2:22 am36 °FFog.3 mph89%29.98 "Hg1 mi
1:56 am36 °FFog.3 mph92%30.03 "Hg1 mi
1:37 am37 °FFog.3 mph93%29.99 "Hg1 mi
1:04 am39 °FFog.No wind89%29.98 "Hg2 mi
12:36 am39 °FFog.No wind89%29.98 "Hg3 mi
12:04 am37 °FFog.No wind96%29.97 "Hg0 mi
11:30 pm
Sat, Apr 22
39 °FFog.No wind93%29.98 "Hg0 mi
11:18 pm39 °FFog.No wind89%29.97 "Hg0 mi
10:56 pm40 °FFog.No wind89%30.00 "Hg1 mi
10:03 pm42 °FPassing clouds.No wind89%29.97 "Hg10 mi
9:56 pm42 °FPassing clouds.No wind85%30.01 "Hg10 mi
9:14 pm43 °FPassing clouds.No wind86%29.96 "Hg10 mi
9:03 pm43 °FClear.No wind82%29.96 "Hg10 mi
7:56 pm44 °FOvercast.3 mph82%29.99 "Hg10 mi
6:56 pm45 °FOvercast.6 mph82%29.98 "Hg10 mi
5:56 pm45 °FOvercast.6 mph82%29.98 "Hg10 mi
5:20 pm45 °FOvercast.5 mph82%29.93 "Hg10 mi
4:56 pm45 °FLow clouds.6 mph82%29.97 "Hg10 mi
3:56 pm45 °FLow clouds.7 mph82%29.96 "Hg10 mi
Weather by CustomWeather, © 2017

See weather overviewHow to use our weather pages